Regional Weather Roundup
Issued by NWS

Home | Current Version | Previous Version | Graphics & Text | Print | Product List | Glossary On
Versions: 1 2 3 4 5 6 7 8 9 10 11 12 13 14 15 16 17 18 19 20 21 22 23 24 25 26 27 28
000
ASUS45 KCYS 222110
RWRWY

WYOMING REGIONAL WEATHER ROUNDUP
NATIONAL WEATHER SERVICE CHEYENNE WY
200 PM MST MON JAN 22 2018

NOTE:  "FAIR" INDICATES FEW OR NO CLOUDS BELOW 12,000 FEET
WITH NO SIGNIFICANT WEATHER AND/OR OBSTRUCTIONS TO VISIBILITY.

WYZ001-222200-
YELLOWSTONE NATIONAL PARK

CITY           SKY/WX    TMP DP  RH WIND       PRES   REMARKS
LK YELLOWSTONE   N/A     18  13  80 CALM      30.09F
W YELLOWSTONE  NOT AVBL

$$
WYZ002>013-054>058-071-098>099-222200-
NORTHERN WYOMING

CITY           SKY/WX    TMP DP  RH WIND       PRES   REMARKS
JACKSON        LGT SNOW  12   9  85 CALM      30.16F FOG
CODY           FAIR      34  13  41 N8G24     30.02F WCI  27
GREYBULL       FAIR      19  13  77 CALM      30.10F
WORLAND        PTSUNNY   18  13  80 CALM      30.09F
SHERIDAN       FAIR      36  17  46 W3        30.01F
BUFFALO        FAIR      38   9  30 N13       30.00S WCI  30
GILLETTE       FAIR      28  18  66 W15       30.00R WCI  16
HULETT         FAIR      36  14  41 W12       29.99S WCI  27
NEWCASTLE      FAIR      32  14  47 NW10      30.00R WCI  24

$$
WYZ014>020-022>026-101>103-222200-
CENTRAL WYOMING

CITY           SKY/WX    TMP DP  RH WIND       PRES   REMARKS
BIG PINEY      FAIR      22   8  55 S3        30.13F
PINEDALE       CLOUDY    23  12  63 W7        30.13S WCI  15
DUBOIS         MOCLDY    28  12  50 NW16G26   30.02S WCI  17
LANDER         CLOUDY    12   6  77 CALM      30.06F
RIVERTON       FAIR      13   4  67 N3        30.07F
CASPER         FAIR      22  12  65 SW23      30.07S WCI   6
DOUGLAS        FAIR      27  16  63 NW15      30.01F WCI  15

$$
WYZ021-027>030-104>119-222200-
SOUTHERN WYOMING

CITY           SKY/WX    TMP DP  RH WIND       PRES   REMARKS
EVANSTON       CLOUDY    19  13  77 SW13      30.16F WCI   6
FORT BRIDGER   LGT SNOW  25  20  82 W18G26    30.18F WCI  11
ROCK SPRINGS   LGT SNOW  19  15  84 SW13      30.14F FOG     WCI   6
DIXON            N/A     27  12  53 SW10G16   30.21S WCI  17
RAWLINS        FAIR      22  11  62 S9G17     30.11F WCI  12
SARATOGA       FAIR      21  12  68 S8        30.12F WCI  12
LARAMIE        FAIR      19   9  65 E8        30.01F WCI   9
CHEYENNE       FAIR      28  11  48 NW23G32   29.97S WCI  14
TORRINGTON     FAIR      30  17  58 NW16G22   30.00S WCI  19

$$




USA.gov is the U.S. government's official web portal to all federal, state and local government web resources and services.